When you browse on this site, cookies collect data to enhance your experience and personalize the content and advertising you see.
Visit our Privacy Policy to learn more. By continuing to use the site, you agree to this use of cookies and data.
  • In Österreich
  • Länderverzeichnis
  • Für 7 Tage
  • Wassertemperatur
  • Satellitenkarten
  • Wetterkarte
  • News
  • Widgets
  • user-avatar
    Anmelden

    Stündliche Wetter Soma Bey

    Heute, 18 November, Sonntag

    Zeit Temperatur Niederschläge Wind Luftdruck Luftfeuchtigkeit
    00:00 +21°C° 0 mm 3 m/S 752 mmHg 55%
    01:00 +20°C° 0 mm 4 m/S 752 mmHg 52%
    02:00 +20°C° 0 mm 4 m/S 751 mmHg 48%
    03:00 +20°C° 0 mm 4 m/S 751 mmHg 45%
    04:00 +20°C° 0 mm 4 m/S 751 mmHg 42%
    05:00 +19°C° 0 mm 4 m/S 751 mmHg 39%
    06:00 +21°C° 0 mm 4 m/S 751 mmHg 34%
    07:00 +22°C° 0 mm 4 m/S 751 mmHg 30%
    08:00 +25°C° 0 mm 3 m/S 751 mmHg 26%
    09:00 +27°C° 0 mm 3 m/S 751 mmHg 25%
    10:00 +28°C° 0 mm 4 m/S 751 mmHg 24%
    11:00 +29°C° 0 mm 4 m/S 751 mmHg 24%
    12:00 +30°C° 0 mm 4 m/S 751 mmHg 24%
    13:00 +30°C° 0 mm 4 m/S 750 mmHg 25%
    14:00 +30°C° 0 mm 3 m/S 749 mmHg 25%
    15:00 +29°C° 0 mm 3 m/S 749 mmHg 28%
    16:00 +28°C° 0 mm 3 m/S 749 mmHg 32%
    17:00 +28°C° 0 mm 3 m/S 749 mmHg 35%
    18:00 +27°C° 0 mm 3 m/S 750 mmHg 37%
    19:00 +26°C° 0 mm 3 m/S 750 mmHg 39%
    20:00 +25°C° 0 mm 2 m/S 750 mmHg 41%
    21:00 +24°C° 0 mm 2 m/S 750 mmHg 40%
    22:00 +24°C° 0 mm 2 m/S 750 mmHg 39%
    23:00 +22°C° 0 mm 3 m/S 750 mmHg 38%

    Morgen, 19 November, Montag

    Zeit Temperatur Niederschläge Wind Luftdruck Luftfeuchtigkeit
    00:00 +23°C° 0 mm 2 m/S 750 mmHg 37%
    01:00 +21°C° 0 mm 2 m/S 750 mmHg 36%
    02:00 +21°C° 0 mm 2 m/S 750 mmHg 35%
    03:00 +20°C° 0 mm 2 m/S 750 mmHg 35%
    04:00 +20°C° 0 mm 2 m/S 750 mmHg 35%
    05:00 +20°C° 0 mm 2 m/S 750 mmHg 34%
    06:00 +21°C° 0 mm 2 m/S 750 mmHg 30%
    07:00 +24°C° 0 mm 3 m/S 750 mmHg 26%
    08:00 +26°C° 0 mm 3 m/S 751 mmHg 22%
    09:00 +27°C° 0 mm 3 m/S 751 mmHg 21%
    10:00 +28°C° 0 mm 3 m/S 751 mmHg 19%
    11:00 +30°C° 0 mm 3 m/S 751 mmHg 18%
    12:00 +30°C° 0 mm 4 m/S 751 mmHg 18%
    13:00 +30°C° 0 mm 4 m/S 751 mmHg 17%
    14:00 +32°C° 0 mm 5 m/S 750 mmHg 17%
    15:00 +30°C° 0 mm 5 m/S 750 mmHg 20%
    16:00 +29°C° 0 mm 5 m/S 750 mmHg 23%
    17:00 +27°C° 0 mm 5 m/S 750 mmHg 26%
    18:00 +26°C° 0 mm 4 m/S 751 mmHg 28%
    19:00 +25°C° 0 mm 4 m/S 751 mmHg 30%
    20:00 +25°C° 0 mm 4 m/S 751 mmHg 33%
    21:00 +23°C° 0 mm 4 m/S 751 mmHg 34%
    22:00 +22°C° 0 mm 4 m/S 751 mmHg 35%
    23:00 +22°C° 0 mm 4 m/S 751 mmHg 36%

    übermorgen, 20 November, Dienstag

    Zeit Temperatur Niederschläge Wind Luftdruck Luftfeuchtigkeit
    00:00 +21°C° 0 mm 4 m/S 751 mmHg 36%
    01:00 +21°C° 0 mm 4 m/S 751 mmHg 36%
    02:00 +20°C° 0 mm 4 m/S 751 mmHg 35%
    03:00 +20°C° 0 mm 4 m/S 751 mmHg 35%
    04:00 +20°C° 0 mm 4 m/S 751 mmHg 34%
    05:00 +19°C° 0 mm 4 m/S 752 mmHg 34%
    06:00 +21°C° 0 mm 4 m/S 752 mmHg 31%
    07:00 +23°C° 0 mm 4 m/S 753 mmHg 27%
    08:00 +25°C° 0 mm 4 m/S 753 mmHg 24%
    09:00 +27°C° 0 mm 4 m/S 753 mmHg 24%
    10:00 +28°C° 0 mm 5 m/S 753 mmHg 23%
    11:00 +29°C° 0 mm 5 m/S 753 mmHg 23%
    12:00 +30°C° 0 mm 5 m/S 752 mmHg 23%
    13:00 +30°C° 0 mm 5 m/S 752 mmHg 24%
    14:00 +32°C° 0 mm 5 m/S 751 mmHg 25%
    15:00 +29°C° 0 mm 5 m/S 751 mmHg 29%
    16:00 +28°C° 0 mm 4 m/S 751 mmHg 34%
    17:00 +27°C° 0 mm 4 m/S 751 mmHg 38%
    18:00 +26°C° 0 mm 4 m/S 751 mmHg 41%
    19:00 +25°C° 0 mm 4 m/S 752 mmHg 44%
    20:00 +25°C° 0 mm 3 m/S 752 mmHg 46%
    21:00 +25°C° 0 mm 3 m/S 752 mmHg 45%
    22:00 +23°C° 0 mm 4 m/S 752 mmHg 44%
    23:00 +23°C° 0 mm 4 m/S 752 mmHg 42%

    21 November, Mittwoch

    Zeit Temperatur Niederschläge Wind Luftdruck Luftfeuchtigkeit
    00:00 +23°C° 0 mm 4 m/S 752 mmHg 41%
    01:00 +22°C° 0 mm 4 m/S 751 mmHg 40%
    02:00 +22°C° 0 mm 4 m/S 751 mmHg 39%
    03:00 +22°C° 0 mm 4 m/S 751 mmHg 40%
    04:00 +21°C° 0 mm 3 m/S 751 mmHg 41%
    05:00 +21°C° 0 mm 3 m/S 751 mmHg 41%
    06:00 +22°C° 0 mm 3 m/S 751 mmHg 37%
    07:00 +25°C° 0 mm 3 m/S 751 mmHg 34%
    08:00 +26°C° 0 mm 3 m/S 752 mmHg 30%
    09:00 +28°C° 0 mm 3 m/S 751 mmHg 28%
    10:00 +29°C° 0 mm 3 m/S 751 mmHg 27%
    11:00 +30°C° 0 mm 4 m/S 751 mmHg 25%
    12:00 +32°C° 0 mm 4 m/S 750 mmHg 25%
    13:00 +32°C° 0 mm 4 m/S 750 mmHg 26%
    14:00 +32°C° 0 mm 4 m/S 749 mmHg 26%
    15:00 +30°C° 0 mm 3 m/S 749 mmHg 30%
    16:00 +29°C° 0 mm 3 m/S 749 mmHg 34%
    17:00 +28°C° 0 mm 3 m/S 749 mmHg 38%
    18:00 +27°C° 0 mm 3 m/S 750 mmHg 41%
    19:00 +26°C° 0 mm 3 m/S 750 mmHg 44%
    20:00 +25°C° 0 mm 3 m/S 750 mmHg 48%
    21:00 +25°C° 0 mm 3 m/S 750 mmHg 48%
    22:00 +24°C° 0 mm 3 m/S 750 mmHg 49%
    23:00 +24°C° 0 mm 3 m/S 750 mmHg 49%

    22 November, Donnerstag

    Zeit Temperatur Niederschläge Wind Luftdruck Luftfeuchtigkeit
    00:00 +24°C° 0 mm 3 m/S 749 mmHg 48%
    01:00 +24°C° 0 mm 3 m/S 749 mmHg 47%
    02:00 +22°C° 0 mm 3 m/S 749 mmHg 46%
    03:00 +22°C° 0 mm 3 m/S 749 mmHg 45%
    04:00 +22°C° 0 mm 3 m/S 749 mmHg 44%
    05:00 +21°C° 0 mm 3 m/S 749 mmHg 43%
    06:00 +24°C° 0 mm 3 m/S 749 mmHg 39%
    07:00 +25°C° 0 mm 3 m/S 750 mmHg 34%
    08:00 +27°C° 0 mm 3 m/S 750 mmHg 30%
    09:00 +28°C° 0 mm 3 m/S 750 mmHg 26%
    10:00 +29°C° 0 mm 4 m/S 750 mmHg 22%
    11:00 +30°C° 0 mm 4 m/S 750 mmHg 18%
    12:00 +32°C° 0 mm 4 m/S 749 mmHg 17%
    13:00 +32°C° 0 mm 4 m/S 748 mmHg 17%
    14:00 +33°C° 0 mm 4 m/S 748 mmHg 16%
    15:00 +30°C° 0 mm 4 m/S 748 mmHg 20%
    16:00 +29°C° 0 mm 3 m/S 748 mmHg 24%
    17:00 +28°C° 0 mm 3 m/S 748 mmHg 27%
    18:00 +27°C° 0 mm 3 m/S 748 mmHg 30%
    19:00 +26°C° 0 mm 3 m/S 749 mmHg 33%
    20:00 +25°C° 0 mm 2 m/S 749 mmHg 35%
    21:00 +25°C° 0 mm 3 m/S 749 mmHg 35%
    22:00 +24°C° 0 mm 3 m/S 749 mmHg 34%
    23:00 +24°C° 0 mm 3 m/S 749 mmHg 34%

    23 November, Freitag

    Zeit Temperatur Niederschläge Wind Luftdruck Luftfeuchtigkeit
    00:00 +22°C° 0 mm 3 m/S 749 mmHg 34%
    01:00 +22°C° 0 mm 4 m/S 749 mmHg 34%
    02:00 +22°C° 0 mm 4 m/S 748 mmHg 34%
    03:00 +21°C° 0 mm 4 m/S 749 mmHg 34%
    04:00 +21°C° 0 mm 5 m/S 749 mmHg 35%
    05:00 +21°C° 0 mm 5 m/S 749 mmHg 35%
    06:00 +22°C° 0 mm 5 m/S 749 mmHg 35%
    07:00 +23°C° 0 mm 5 m/S 750 mmHg 34%
    08:00 +25°C° 0 mm 5 m/S 750 mmHg 33%
    09:00 +26°C° 0 mm 5 m/S 750 mmHg 30%
    10:00 +27°C° 0 mm 5 m/S 750 mmHg 27%
    11:00 +28°C° 0 mm 6 m/S 750 mmHg 24%
    12:00 +28°C° 0 mm 6 m/S 750 mmHg 23%
    13:00 +29°C° 0 mm 6 m/S 749 mmHg 22%
    14:00 +29°C° 0 mm 6 m/S 749 mmHg 22%
    15:00 +28°C° 0 mm 6 m/S 749 mmHg 26%
    16:00 +27°C° 0 mm 6 m/S 749 mmHg 30%
    17:00 +26°C° 0 mm 6 m/S 749 mmHg 34%
    18:00 +24°C° 0 mm 6 m/S 750 mmHg 38%
    19:00 +23°C° 0 mm 6 m/S 750 mmHg 41%
    20:00 +23°C° 0 mm 5 m/S 750 mmHg 45%
    21:00 +22°C° 0 mm 5 m/S 750 mmHg 47%
    22:00 +21°C° 0 mm 5 m/S 750 mmHg 50%
    23:00 +21°C° 0 mm 5 m/S 750 mmHg 53%
    Mehr zeigen